{"data":{"norad_id":55993,"intl_designator":"2023-042H","name":"STARLINK-5969","alt_names":[],"object_type":"PAYLOAD","status":"ACTIVE","operator":null,"country":"US","launch_date":"2023-03-24","launch_site_code":"AFETR","launch_vehicle":null,"mission":null,"orbit_class":"UNKNOWN","rcs_meters":null,"size_class":null,"mass_kg":null,"dimensions":null,"purposes":["comms"],"wikipedia_slug":null,"has_3d_model":false,"image_url":null,"decayed_at":null,"tle_current":{"epoch":"2026-09-20T19:45:01.117440Z","epoch_age_seconds":78255,"freshness":"FRESH","line1":"1 55993U 23042H   26263.82292960 -.00001479  00000+0 -44234-4 0  9992","line2":"2 55993  43.0058  37.5104 0001569 273.2612  86.8060 15.27566879192711","mean_motion":15.27566879,"eccentricity":0.0001569,"inclination_deg":43.0058,"raan_deg":37.5104,"arg_perigee_deg":273.2612,"mean_anomaly_deg":86.806,"bstar":-4.4234e-5,"rev_number":19271,"period_min":94.267558415686,"perigee_km":482.01185905218,"apogee_km":484.16491157809,"semimajor_km":6861.2253853151,"source":"CELESTRAK","updated_at":"2026-09-21T09:00:33.350645Z"}}}